This demonstration page uses our WeatherBlox Daily Observations layout. Learn more.

Left ArrowRight Arrow

34.16533, -84.80231

Hourly Observations for October 23, 2015

Temp ( °F °C ) Dew Point ( °F °C ) Humidity (%) Winds ( mph kmh ) Pressure ( in mb ) Visibility ( mi km ) Precip ( " mm )
12:10 am 00:10 Clear with Mist and Fog 53 11.7 53 11.7 100 100 Calm 30.24 1024 2 2 0.00 0.00
12:20 am 00:20 Clear with Mist and Fog 53 11.7 53 11.7 100 100 Calm 30.24 1024 3 5 0.00 0.00
12:27 am 00:27 Clear with Mist and Fog 52 11.1 52 11.1 100 100 Calm 30.24 1024 2 3 0.00 0.00
12:37 am 00:37 Clear with Mist and Fog 52 11.1 52 11.1 100 100 Calm 30.24 1024 6 10 0.00 0.00
12:53 am 00:53 Clear with Mist and Fog 52 11.1 52 11.1 100 100 Calm 30.22 1023 5 8 0.00 0.00
1:36 am 01:36 Clear with Mist and Fog 51 10.6 50 10 96 96 Calm 30.24 1024 2 3 0.00 0.00
1:53 am 01:53 Clear with Mist and Fog 51 10.6 51 10.6 100 100 Calm 30.21 1023 6 10 0.00 0.00
2:01 am 02:01 Mostly Clear with Mist and Fog 51 10.6 51 10.6 100 100 Calm 30.24 1024 3 4 0.00 0.00
2:34 am 02:34 Partly Cloudy with Mist and Fog 51 10.6 51 10.6 100 100 Calm 30.24 1024 2 2 0.00 0.00
2:44 am 02:44 Mostly Cloudy with Mist and Fog 51 10.6 51 10.6 100 100 Calm 30.24 1024 2 2 0.00 0.00
2:53 am 02:53 Mostly Cloudy with Mist and Fog 50 10 50 10 100 100 Calm 30.20 1023 1 1 0.00 0.00
3:16 am 03:16 Cloudy with Mist and Fog 50 10 50 10 100 100 Calm 30.21 1023 2 3 0.00 0.00
3:24 am 03:24 Cloudy with Mist and Fog 51 10.6 51 10.6 100 100 Calm 30.21 1023 5 8 0.00 0.00
3:36 am 03:36 Cloudy with Mist and Fog 49 9.4 49 9.4 100 100 Calm 30.21 1023 2 3 0.00 0.00
3:48 am 03:48 Mostly Cloudy with Mist and Fog 52 11 50 10 94 94 Calm 30.21 1023 1 1 0.00 0.00
3:53 am 03:53 Mostly Cloudy with Fog 50 10 50 10 100 100 Calm 30.19 1022 1 1 0.00 0.00
4:02 am 04:02 Mostly Cloudy with Fog 51 10.6 51 10.6 100 100 Calm 30.21 1023 0 0 0.00 0.00
4:46 am 04:46 Mostly Cloudy with Fog 50 10 50 10 100 100 Calm 30.21 1023 1 1 0.00 0.00
4:53 am 04:53 Mostly Cloudy with Fog 51 10.6 50 10 96 96 Calm 30.19 1022 1 1 0.00 0.00
5:53 am 05:53 Cloudy with Mist and Fog 50 10 50 10 100 100 Calm 30.20 1023 2 2 0.00 0.00
5:57 am 05:57 Cloudy with Mist and Fog 50 10 50 10 100 100 Calm 30.24 1024 3 5 0.00 0.00
6:21 am 06:21 Cloudy with Mist and Fog 50 10 49 9.4 96 96 Calm 30.24 1024 2 3 0.00 0.00
6:33 am 06:33 Mostly Cloudy with Fog 49 9.4 49 9.4 100 100 Calm 30.24 1024 1 1 0.00 0.00
6:49 am 06:49 Cloudy with Mist and Fog 48 9 48 9 100 100 Calm 30.24 1024 2 3 0.00 0.00
6:53 am 06:53 Cloudy 48 8.9 48 8.9 100 100 Calm 30.22 1023 7 11 0.00 0.00
7:06 am 07:06 Cloudy with Mist and Fog 48 8.9 48 8.9 100 100 Calm 30.24 1024 2 3 0.00 0.00
7:21 am 07:21 Mostly Cloudy with Fog 49 9.4 48 8.9 97 97 Calm 30.24 1024 1 1 0.00 0.00
7:53 am 07:53 Mostly Cloudy with Fog 48 8.9 47 8.3 96 96 Calm 30.22 1023 1 1 0.00 0.00
8:02 am 08:02 Partly Cloudy with Mist and Fog 48 8.9 48 8.9 100 100 Calm 30.24 1024 2 2 0.00 0.00
8:09 am 08:09 Mostly Sunny 48 8.9 48 8.9 100 100 Calm 30.24 1024 8 13 0.00 0.00
8:26 am 08:26 Mostly Cloudy 49 9.4 49 9.4 100 100 Calm 30.24 1024 7 11 0.00 0.00
8:53 am 08:53 Cloudy 51 10.6 50 10 96 96 Calm 30.23 1024 7 11 0.00 0.00
9:27 am 09:27 Mostly Sunny 54 12.2 53 11.7 97 97 Calm 30.24 1024 7 11 0.00 0.00
9:53 am 09:53 Sunny 57 13.9 55 12.8 93 93 Calm 30.23 1024 10 16 0.00 0.00
10:53 am 10:53 Sunny 64 17.8 58 14.4 81 81 Calm 30.23 1024 10 16 0.00 0.00
11:53 am 11:53 Sunny 72 22.2 59 15 64 64 NNE 3 6 30.21 1023 10 16 0.00 0.00
12:53 pm 12:53 Sunny 76 24.4 59 15 56 56 VRB 5 7 30.18 1022 10 16 0.00 0.00
1:53 pm 13:53 Mostly Cloudy 77 25 59 15 54 54 Calm 30.16 1021 10 16 0.00 0.00
2:53 pm 14:53 Sunny 78 25.6 58 14.4 50 50 Calm 30.13 1020 10 16 0.00 0.00
3:53 pm 15:53 Sunny 79 26.1 57 13.9 47 47 ESE 3 6 30.11 1020 10 16 0.00 0.00
4:53 pm 16:53 Sunny 78 25.6 57 13.9 48 48 Calm 30.10 1019 10 16 0.00 0.00
5:53 pm 17:53 Sunny 76 24.4 59 15 56 56 Calm 30.11 1020 10 16 0.00 0.00
6:53 pm 18:53 Sunny 64 17.8 62 16.7 93 93 Calm 30.12 1020 10 16 0.00 0.00
7:53 pm 19:53 Clear 61 16.1 60 15.6 97 97 Calm 30.14 1021 10 16 0.00 0.00
8:53 pm 20:53 Clear 60 15.6 59 15 96 96 Calm 30.15 1021 10 16 0.00 0.00
9:53 pm 21:53 Clear 57 13.9 57 13.9 100 100 Calm 30.15 1021 10 16 0.00 0.00
10:53 pm 22:53 Clear 57 13.9 57 13.9 100 100 Calm 30.15 1021 10 16 0.00 0.00
11:53 pm 23:53 Clear 55 12.8 55 12.8 100 100 Calm 30.15 1021 10 16 0.00 0.00

Powered by AerisWeather